This demonstration page uses our WeatherBlox Daily Observations layout. Learn more.

Left ArrowRight Arrow

Hourly Observations for March 23, 2020

Temp ( °F °C ) Dew Point ( °F °C ) Humidity (%) Winds ( mph kmh ) Pressure ( in mb ) Visibility ( mi km ) Precip ( " mm )
12:51 am 00:51 Clear 56 13.3 45 7.2 67 67 Calm 29.97 1015 10 16 0.00 0.00
1:51 am 01:51 Clear 56 13.3 44 6.7 65 65 S 6 9 29.94 1014 10 16 0.00 0.00
2:51 am 02:51 Partly Cloudy 54 12.2 44 6.7 69 69 E 5 7 29.92 1013 10 16 0.00 0.00
3:51 am 03:51 Partly Cloudy 53 11.7 46 7.8 77 77 Calm 29.94 1014 10 16 0.00 0.00
4:51 am 04:51 Mostly Cloudy 54 12.2 45 7.2 72 72 E 5 7 29.93 1013 10 16 0.00 0.00
5:51 am 05:51 Mostly Clear 54 12.2 44 6.7 69 69 Calm 29.95 1014 10 16 0.00 0.00
6:51 am 06:51 Mostly Sunny 54 12.2 45 7.2 72 72 WNW 7 11 29.98 1015 10 16 0.00 0.00
7:51 am 07:51 Sunny 54 12.2 45 7.2 72 72 W 5 7 29.99 1016 10 16 0.00 0.00
8:51 am 08:51 Mostly Sunny 62 16.7 44 6.7 52 52 W 8 13 29.99 1016 10 16 0.00 0.00
9:51 am 09:51 Sunny 66 18.9 39 3.9 37 37 W 9 15 29.98 1015 10 16 0.00 0.00
10:51 am 10:51 Sunny 68 20 38 3.3 33 33 W 9 15 29.98 1015 10 16 0.00 0.00
11:51 am 11:51 Sunny 70 21.1 36 2.2 29 29 W 9 15 29.96 1015 10 16 0.00 0.00
12:51 pm 12:51 Sunny 72 22.2 34 1.1 25 25 WNW 9 15 29.93 1014 10 16 0.00 0.00
1:51 pm 13:51 Sunny 74 23.3 33 0.6 22 22 NW 20 31 29.91 1013 10 16 0.00 0.00
2:51 pm 14:51 Sunny 74 23.3 31 -0.6 20 20 NW 18 30 29.91 1013 10 16 0.00 0.00
3:51 pm 15:51 Sunny 73 22.8 31 -0.6 21 21 NW 22 35 29.89 1012 10 16 0.00 0.00
4:51 pm 16:51 Sunny 72 22.2 30 -1.1 21 21 NW 24 39 29.90 1012 10 16 0.00 0.00
5:51 pm 17:51 Sunny 69 20.6 31 -0.6 24 24 NW 21 33 29.92 1013 10 16 0.00 0.00
6:51 pm 18:51 Clear 65 18.3 33 0.6 31 31 NW 15 24 29.95 1014 10 16 0.00 0.00
7:51 pm 19:51 Clear 59 15 35 1.7 41 41 NNW 8 13 29.98 1015 10 16 0.00 0.00
8:51 pm 20:51 Clear 60 15.6 34 1.1 38 38 NW 10 17 29.97 1015 10 16 0.00 0.00
9:51 pm 21:51 Clear 58 14.4 34 1.1 41 41 NW 12 19 29.99 1016 10 16 0.00 0.00
10:51 pm 22:51 Clear 55 12.8 36 2.2 49 49 WNW 7 11 30.01 1016 10 16 0.00 0.00
11:51 pm 23:51 Clear 53 11.7 37 2.8 55 55 NW 7 11 30.01 1016 10 16 0.00 0.00

Powered by AerisWeather